Wetterdaten: aktuell Montag, 04.05.2026 08:13
Datum Zeit Temp. A. Feuchte A. Luftdruck Regen Wind Richtung Richtung Taupunkt Windchill
04.05.2026 08:13 14,9 °C 50 % 1007,2 hPa 0,0 l/m² 3,7 km/h (1 Bft) SO±22.5° 130 ° 4,6 °C 14,9 °C
04.05.2026 08:11 14,8 °C 51 % 1007,2 hPa 0,0 l/m² 1,4 km/h (1 Bft) SO±22.5° 135 ° 4,8 °C 14,8 °C
04.05.2026 08:09 14,8 °C 51 % 1007,2 hPa 0,0 l/m² 2,8 km/h (1 Bft) SO 130 ° 4,8 °C 14,8 °C
04.05.2026 08:07 14,6 °C 51 % 1007,2 hPa 0,0 l/m² 2,8 km/h (1 Bft) SO 130 ° 4,6 °C 14,6 °C
04.05.2026 08:05 14,5 °C 52 % 1007,2 hPa 0,0 l/m² 0,6 km/h (0 Bft) SO 130 ° 4,8 °C 14,5 °C
04.05.2026 08:03 14,5 °C 52 % 1007,2 hPa 0,0 l/m² 1,3 km/h (1 Bft) SO 135 ° 4,8 °C 14,5 °C
04.05.2026 08:01 14,4 °C 52 % 1007,2 hPa 0,0 l/m² 1,3 km/h (1 Bft) SO 135 ° 4,7 °C 14,4 °C
04.05.2026 07:59 14,3 °C 53 % 1007,2 hPa 0,0 l/m² 0,8 km/h (0 Bft) SO 130 ° 4,9 °C 14,3 °C
04.05.2026 07:57 14,2 °C 53 % 1007,3 hPa 0,0 l/m² 0,0 km/h (0 Bft) SO 125 ° 4,8 °C 14,2 °C
04.05.2026 07:55 14,2 °C 53 % 1007,3 hPa 0,0 l/m² 1,2 km/h (1 Bft) SO 125 ° 4,8 °C 14,2 °C
04.05.2026 07:53 14,0 °C 53 % 1007,3 hPa 0,0 l/m² 1,2 km/h (1 Bft) SO 125 ° 4,6 °C 14,0 °C
04.05.2026 07:51 14,0 °C 53 % 1007,3 hPa 0,0 l/m² 3,9 km/h (1 Bft) SO 125 ° 4,6 °C 14,0 °C
04.05.2026 07:49 14,0 °C 53 % 1007,3 hPa 0,0 l/m² 2,0 km/h (1 Bft) SO 125 ° 4,6 °C 14,0 °C
04.05.2026 07:46 13,9 °C 54 % 1007,3 hPa 0,0 l/m² 3,7 km/h (1 Bft) O-SO 120 ° 4,7 °C 13,9 °C
04.05.2026 07:44 13,9 °C 53 % 1007,3 hPa 0,0 l/m² 3,7 km/h (1 Bft) O-SO 120 ° 4,5 °C 13,9 °C
04.05.2026 07:43 13,9 °C 53 % 1007,3 hPa 0,0 l/m² 2,8 km/h (1 Bft) O-SO 120 ° 4,5 °C 13,9 °C
04.05.2026 07:41 13,8 °C 54 % 1007,3 hPa 0,0 l/m² 0,5 km/h (0 Bft) O-SO 120 ° 4,7 °C 13,8 °C
04.05.2026 07:39 13,7 °C 54 % 1007,3 hPa 0,0 l/m² 0,5 km/h (0 Bft) O-SO 120 ° 4,6 °C 13,7 °C
04.05.2026 07:37 13,7 °C 54 % 1007,3 hPa 0,0 l/m² 0,0 km/h (0 Bft) O-SO 120 ° 4,6 °C 13,7 °C
04.05.2026 07:35 13,6 °C 54 % 1007,3 hPa 0,0 l/m² 0,3 km/h (0 Bft) O-SO 120 ° 4,5 °C 13,6 °C
04.05.2026 07:33 13,6 °C 54 % 1007,3 hPa 0,0 l/m² 0,2 km/h (0 Bft) O-SO 120 ° 4,5 °C 13,6 °C
04.05.2026 07:31 13,6 °C 54 % 1007,3 hPa 0,0 l/m² 0,2 km/h (0 Bft) O-SO 120 ° 4,5 °C 13,6 °C
04.05.2026 07:29 13,5 °C 54 % 1007,3 hPa 0,0 l/m² 5,2 km/h (1 Bft) SO 130 ° 4,4 °C 13,5 °C
04.05.2026 07:27 13,4 °C 54 % 1007,3 hPa 0,0 l/m² 0,3 km/h (0 Bft) SO 130 ° 4,3 °C 13,4 °C
04.05.2026 07:25 13,4 °C 54 % 1007,3 hPa 0,0 l/m² 0,0 km/h (0 Bft) SO 130 ° 4,3 °C 13,4 °C
04.05.2026 07:23 13,5 °C 54 % 1007,3 hPa 0,0 l/m² 0,0 km/h (0 Bft) SO 130 ° 4,4 °C 13,5 °C
04.05.2026 07:21 13,4 °C 55 % 1007,3 hPa 0,0 l/m² 0,4 km/h (0 Bft) SO 130 ° 4,5 °C 13,4 °C
04.05.2026 07:19 13,4 °C 55 % 1007,3 hPa 0,0 l/m² 0,4 km/h (0 Bft) SO 130 ° 4,5 °C 13,4 °C
04.05.2026 07:17 13,3 °C 55 % 1007,3 hPa 0,0 l/m² 0,4 km/h (0 Bft) SO 130 ° 4,5 °C 13,3 °C
04.05.2026 07:15 13,3 °C 55 % 1007,3 hPa 0,0 l/m² 0,3 km/h (0 Bft) SO 130 ° 4,5 °C 13,3 °C
04.05.2026 07:13 13,3 °C 55 % 1007,3 hPa 0,0 l/m² 0,0 km/h (0 Bft) SO 130 ° 4,5 °C 13,3 °C
04.05.2026 07:11 13,2 °C 55 % 1007,3 hPa 0,0 l/m² 0,0 km/h (0 Bft) SO 130 ° 4,4 °C 13,2 °C
04.05.2026 07:09 13,2 °C 56 % 1007,3 hPa 0,0 l/m² 0,0 km/h (0 Bft) SO 130 ° 4,6 °C 13,2 °C
04.05.2026 07:07 13,2 °C 56 % 1007,3 hPa 0,0 l/m² 0,0 km/h (0 Bft) SO 130 ° 4,6 °C 13,2 °C
04.05.2026 07:04 13,1 °C 56 % 1007,3 hPa 0,0 l/m² 0,0 km/h (0 Bft) SO 130 ° 4,5 °C 13,1 °C
04.05.2026 07:03 13,1 °C 56 % 1007,3 hPa 0,0 l/m² 0,0 km/h (0 Bft) SO 130 ° 4,5 °C 13,1 °C
04.05.2026 07:01 13,1 °C 56 % 1007,3 hPa 0,0 l/m² 0,0 km/h (0 Bft) SO 130 ° 4,5 °C 13,1 °C
04.05.2026 06:59 13,1 °C 56 % 1007,3 hPa 0,0 l/m² 0,0 km/h (0 Bft) SO 130 ° 4,5 °C 13,1 °C
04.05.2026 06:57 13,0 °C 57 % 1007,3 hPa 0,0 l/m² 0,0 km/h (0 Bft) SO 130 ° 4,7 °C 13,0 °C
04.05.2026 06:55 13,0 °C 57 % 1007,3 hPa 0,0 l/m² 0,0 km/h (0 Bft) SO 130 ° 4,7 °C 13,0 °C
04.05.2026 06:53 13,0 °C 57 % 1007,3 hPa 0,0 l/m² 0,0 km/h (0 Bft) SO 130 ° 4,7 °C 13,0 °C
_ Min-Zeit 06:05 00:01 00:01 - 00:01 - - 00:09 06:05
Minimum _ 12,9 °C 29 % 1006,1 hPa - 0,0 km/h (0 Bft) - - 0,1 °C 12,9 °C
_ Max-Zeit 00:01 06:47 06:19 00:01 07:29 - - 07:59 00:01
Maximum _ 18,6 °C 58 % 1007,3 hPa 0,0 l/m² 5,2 km/h
SO (1 Bft)
- - 4,9 °C 18,6 °C
Durchschnitt _ 15,5 °C 44 % 1006,8 hPa #0,0 l/m² 0,2 km/h (0 Bft) SO - 3,1 °C 15,5 °C